www.pogodaiklimat.ru

Погода и климат >> Архив погоды >> Япония >> Tokyo


АРХИВ ПОГОДЫ в Tokyo

Время (UTC), дата Ветер
(напр.,м/с)
 
Видим.   Явления Облачность Т
(С)
Тd
(С)
f
(%)
Тe
(С)
Тes
(С)
Комфортность P
(гПа)
Po
(гПа)
Тmin
(С)
Tmax
(С)
R
(мм)
R24
(мм)
S
(см)
02 15.10 СВ 2 н/о н/о +15.6 +15.0 96 +16 +16 холодно 1025.3 1022.4
01 15.10 С 2 н/о н/о +15.8 +15.5 98 +16 +16 прохладно 1025.6 1022.7
03 15.10 С 2 8000 м слабый дождь 10/8 300 м
[Sc As op]
+15.4 +14.8 96 +15 +16 холодно 1025.4 1022.5
04 15.10 С 3 н/о н/о +15.1 +14.5 96 +14 +14 очень
холодно
1024.6 1021.7
05 15.10 СВ 4 н/о н/о +15.3 +14.2 93 +14 +14 очень
холодно
1024.9 1022.0
06 15.10 С 3 10 км слабый дождь 10/9
[Sc As op]
+15.2 +14.7 97 +14 +14 очень
холодно
1025.0 1022.1 5
08 15.10 СВ 3 н/о н/о +14.6 +14.1 97 +14 +14 очень
холодно
1025.7 1022.8
07 15.10 С 3 н/о н/о +14.9 +14.1 95 +14 +14 холодно 1025.4 1022.5
09 15.10 С 2 10 км слабый дождь 10/9 300 м
[Sc As op]
+14.4 +13.9 97 +14 +14 холодно 1026.5 1023.6
10 15.10 СВ 2 н/о н/о +14.5 +14.2 98 +14 +14 холодно 1026.7 1023.8
11 15.10 С 1 н/о н/о +14.5 +14.4 99 +15 +15 прохладно 1027.4 1024.5
12 15.10 СЗ 2 10 км слабый дождь 10/9
[Sc As op]
+14.5 +14.5 100 +14 +14 прохладно 1027.8 1024.9 +16.0 6
14 15.10 СЗ 2 н/о н/о +14.2 +14.2 100 +14 +14 прохладно 1027.5 1024.6
13 15.10 СЗ 3 н/о н/о +14.3 +14.3 100 +13 +13 прохладно 1028.3 1025.4
15 15.10 С 2 н/о н/о +14.3 +14.3 100 +14 +14 прохладно 1027.2 1024.3
16 15.10 С 2 н/о н/о +14.1 +14.1 100 +13 +13 прохладно 1027.0 1024.1
17 15.10 СВ 3 н/о н/о +13.8 +13.8 100 +12 +12 прохладно 1026.8 1023.9
18 15.10 СВ 3 4000 м слабый дождь 10/10
[Sc]
+13.1 +13.1 100 +12 +12 прохладно 1026.9 1024.0 9
20 15.10 С 3 н/о н/о +12.7 +12.7 100 +11 +11 холодно 1027.5 1024.5
19 15.10 СВ 3 н/о н/о +12.9 +12.9 100 +11 +11 холодно 1026.7 1023.8
21 15.10 СВ 3 4000 м слабый дождь 10/10 200 м
[Sc]
+12.7 +12.7 100 +11 +11 холодно 1027.8 1024.8
22 15.10 СВ 3 н/о н/о +12.6 +12.5 99 +11 +11 очень
холодно
1028.0 1025.0
23 15.10 С 3 н/о н/о +12.6 +12.3 98 +11 +11 очень
холодно
1028.8 1025.8
00 16.10 СВ 4 4000 м слабый дождь 10/10 200 м
[Sc]
+12.6 +12.5 99 +11 +11 холодно 1028.6 1025.6 +12.4 18
02 16.10 С 2 н/о н/о +13.3 +13.2 99 +12 +12 очень
холодно
1027.4 1024.5
01 16.10 С 3 н/о н/о +12.9 +12.8 99 +12 +12 очень
холодно
1028.2 1025.2
03 16.10 С 2 4000 м слабый дождь 10/10 200 м
[Sc]
+13.4 +13.4 100 +13 +13 холодно 1026.2 1023.3
04 16.10 С 4 н/о н/о +13.0 +13.0 100 +11 +11 очень
холодно
1025.8 1022.9
05 16.10 СЗ 4 н/о н/о +12.7 +12.7 100 +11 +11 очень
холодно
1025.7 1022.8
06 16.10 С 2 4000 м слабый дождь 10/10 200 м
[Sc]
+12.5 +12.4 99 +11 +11 очень
холодно
1025.6 1022.7 10
08 16.10 С 2 н/о н/о +12.4 +12.4 100 +11 +11 очень
холодно
1025.9 1022.9
07 16.10 С 2 н/о н/о +12.4 +12.4 100 +11 +11 очень
холодно
1025.5 1022.6
09 16.10 С 3 4000 м слабый дождь 10/10
[Sc]
+12.5 +12.5 100 +11 +11 очень
холодно
1026.9 1023.9
10 16.10 С 3 н/о н/о +12.2 +12.2 100 +10 +10 очень
холодно
1026.5 1023.5
11 16.10 С 2 н/о н/о +12.2 +12.1 99 +11 +11 очень
холодно
1026.8 1023.8
12 16.10 СЗ 2 5000 м слабый дождь 10/10
[Sc]
+12.2 +12.2 100 +11 +11 очень
холодно
1026.9 1023.9 +13.6 16
14 16.10 СЗ 2 н/о н/о +12.0 +12.0 100 +11 +11 холодно 1025.5 1022.5
13 16.10 С 2 н/о н/о +12.1 +12.1 100 +11 +11 холодно 1026.3 1023.3
15 16.10 СЗ 4 н/о н/о +11.8 +11.8 100 +9 +9 очень
холодно
1024.7 1021.7
16 16.10 С 3 н/о н/о +11.7 +11.7 100 +10 +10 холодно 1024.4 1021.4
17 16.10 СЗ 3 н/о н/о +11.9 +11.9 100 +10 +10 холодно 1024.4 1021.4
18 16.10 С 2 5000 м слабый дождь 10/9
[Sc As op]
+12.0 +12.0 100 +11 +11 холодно 1023.9 1021.0 5
20 16.10 С 3 н/о н/о +12.3 +12.3 100 +11 +11 холодно 1024.0 1021.1
19 16.10 СЗ 2 н/о н/о +12.1 +12.1 100 +11 +11 холодно 1023.2 1020.3
21 16.10 СЗ 3 5000 м слабый дождь 10/10 100 м
[Sc]
+12.3 +12.3 100 +11 +11 холодно 1024.2 1021.3
22 16.10 С 2 н/о н/о +12.5 +12.5 100 +11 +11 холодно 1024.0 1021.1
23 16.10 С 2 н/о н/о +12.7 +12.7 100 +12 +12 холодно 1024.5 1021.6
00 17.10 С 2 6000 м слабый дождь 10/10 200 м
[Sc]
+12.9 +12.8 99 +12 +12 холодно 1024.1 1021.2 +11.6 8
02 17.10 С 2 н/о н/о +13.4 +12.9 97 +13 +13 очень
холодно
1023.6 1020.7
01 17.10 С 2 н/о н/о +13.6 +13.5 99 +13 +13 холодно 1023.9 1021.0
03 17.10 С 2 7000 м слабый дождь 10/9 300 м
[Sc As op]
+13.9 +13.1 95 +14 +14 холодно 1022.3 1019.4
04 17.10 С 1 н/о н/о +14.2 +13.1 93 +14 +14 очень
холодно
1021.8 1018.9
05 17.10 С 2 н/о н/о +14.8 +13.2 90 +14 +14 очень
холодно
1021.4 1018.5
06 17.10 СВ 2 15 км {дождь} 9/3
[Cu Sc Ac As Ci sp]
+15.4 +13.6 89 +15 +17 холодно 1021.2 1018.3 2
08 17.10 С 2 н/о н/о +14.4 +12.6 89 +14 +14 холодно 1021.1 1018.2
07 17.10 С 1 н/о н/о +14.6 +13.2 91 +15 +15 холодно 1021.2 1018.3
09 17.10 С 2 15 км 10/1
[Cu hum Ac As Ci sp]
+14.9 +12.6 86 +15 +15 прохладно 1021.5 1018.6
10 17.10 СВ 2 н/о н/о +13.2 +12.7 97 +13 +13 холодно 1022.2 1019.3
11 17.10 С 2 н/о н/о +13.4 +12.8 96 +13 +13 холодно 1022.0 1019.1
12 17.10 С 2 20 км 8/1
[Cu hum Ac As Ci sp]
+12.9 +12.6 98 +12 +12 холодно 1022.3 1019.4 +15.6 2
14 17.10 СЗ 3 н/о н/о +14.1 +13.2 94 +13 +13 прохладно 1022.3 1019.4
13 17.10 СЗ 2 н/о н/о +13.8 +13.0 95 +13 +13 прохладно 1022.2 1019.3
15 17.10 С 1 н/о н/о +13.1 +12.8 98 +13 +13 прохладно 1022.1 1019.2
16 17.10 СВ 2 н/о н/о +12.2 +12.2 100 +11 +11 прохладно 1021.9 1019.0
17 17.10 С 2 н/о н/о +11.9 +11.9 100 +11 +11 прохладно 1021.7 1018.8
18 17.10 СВ 2 20 км 3/0
[Ac trans Ci sp]
+12.1 +12.0 99 +11 +11 холодно 1021.8 1018.9
20 17.10 С 3 н/о н/о +11.8 +10.4 91 +10 +10 холодно 1022.7 1019.8
19 17.10 С 2 н/о н/о +12.4 +11.3 93 +11 +11 холодно 1022.1 1019.2
21 17.10 С 2 20 км 3/0
[Ac trans Ci sp]
+11.9 +9.6 86 +11 +11 холодно 1023.3 1020.4
22 17.10 С 2 н/о н/о +12.7 +11.6 93 +12 +12 холодно 1024.1 1021.2
23 17.10 С 2 н/о н/о +14.5 +12.2 86 +14 +14 прохладно 1024.8 1021.9
00 18.10 СВ 2 15 км 3/0
[Ac trans Ci sp]
+16.5 +11.7 73 +17 +21 по сезону 1024.9 1022.0 +11.2
02 18.10 СВ 3 н/о н/о +18.5 +10.4 59 +19 +19 по сезону 1024.2 1021.3
01 18.10 СВ 4 н/о н/о +16.6 +9.3 62 +16 +16 прохладно 1024.3 1021.4
03 18.10 СВ 3 25 км 9/3
[Cu med, cong Ac trans Ci sp]
+18.8 +9.6 55 +20 +23 тепло 1023.3 1020.4
04 18.10 СВ 4 н/о н/о +18.6 +9.4 55 +19 +19 прохладно 1022.7 1019.8
05 18.10 В 3 н/о н/о +17.4 +10.3 63 +17 +17 прохладно 1023.0 1020.1
06 18.10 В 4 20 км 9/3
[Cu med, cong Ac As Ci sp]
+16.6 +9.3 62 +16 +17 холодно 1023.4 1020.5
08 18.10 В 4 н/о н/о +14.4 +7.7 64 +13 +13 очень
холодно
1024.8 1021.9
07 18.10 СВ 6 н/о н/о +15.5 +8.7 64 +14 +14 холодно 1024.0 1021.1
09 18.10 СВ 5 20 км 9/1
[Sc Ac As]
+14.0 +7.3 64 +12 +12 очень
холодно
1024.9 1022.0
10 18.10 В 5 н/о н/о +13.9 +7.0 63 +12 +12 холодно 1025.7 1022.8
11 18.10 СВ 4 н/о н/о +14.0 +6.9 62 +13 +13 холодно 1025.6 1022.7
12 18.10 СВ 3 20 км 9/9
[Sc]
+13.9 +7.4 65 +13 +13 холодно 1026.1 1023.2 +19.5
14 18.10 С 3 н/о н/о +13.1 +8.4 73 +12 +12 прохладно 1025.4 1022.5
13 18.10 СВ 3 н/о н/о +13.9 +7.0 63 +13 +13 прохладно 1025.9 1023.0
15 18.10 СВ 2 н/о н/о +12.2 +8.7 79 +11 +11 холодно 1024.6 1021.7
16 18.10 С 2 н/о н/о +11.5 +9.8 89 +10 +10 прохладно 1024.6 1021.6
17 18.10 С 2 н/о н/о +11.0 +9.9 93 +10 +10 холодно 1024.7 1021.7
18 18.10 С 2 8000 м слабый дождь 10/10
[Sc]
+10.5 +10.1 97 +9 +9 холодно 1024.5 1021.5 4
20 18.10 С 3 н/о н/о +10.2 +9.9 98 +8 +8 очень
холодно
1024.0 1021.0
19 18.10 СЗ 3 н/о н/о +10.4 +10.1 98 +8 +8 очень
холодно
1024.1 1021.1
21 18.10 С 2 4000 м слабый дождь 10/9 200 м
[Frnb As op]
+10.2 +9.9 98 +8 +8 очень
холодно
1023.6 1020.6
22 18.10 С 2 н/о н/о +10.1 +10.0 99 +8 +8 очень
холодно
1023.4 1020.4
23 18.10 С 3 н/о н/о +10.3 +10.2 99 +8 +8 очень
холодно
1024.0 1021.0
00 19.10 С 3 4000 м дождь 10/9 200 м
[Frnb As op]
+10.2 +9.9 98 +8 +8 очень
холодно
1024.0 1021.0 +9.9 16
02 19.10 С 3 н/о н/о +10.9 +10.6 98 +9 +9 очень
холодно
1023.1 1020.1
01 19.10 С 3 н/о н/о +10.5 +10.1 97 +9 +9 очень
холодно
1023.8 1020.8
03 19.10 С 3 4000 м слабый дождь 10/9 200 м
[Frnb As op]
+11.1 +10.7 97 +9 +9 очень
холодно
1021.3 1018.3
04 19.10 С 3 н/о н/о +11.6 +11.5 99 +10 +10 очень
холодно
1021.3 1018.4
05 19.10 С 2 н/о н/о +11.3 +11.2 99 +10 +10 очень
холодно
1020.5 1017.6
06 19.10 С 2 4000 м дождь 10/9 200 м
[Frnb As op]
+11.4 +11.4 100 +10 +11 очень
холодно
1020.5 1017.6 16
08 19.10 СЗ 4 н/о н/о +11.4 +11.4 100 +9 +9 очень
холодно
1020.8 1017.9
07 19.10 СЗ 3 н/о н/о +11.5 +11.5 100 +9 +9 очень
холодно
1021.0 1018.1
09 19.10 С 3 4000 м слабый дождь 10/9 300 м
[Frnb As op]
+11.4 +11.4 100 +10 +10 очень
холодно
1020.9 1018.0
10 19.10 С 3 н/о н/о +11.3 +11.3 100 +9 +9 очень
холодно
1020.7 1017.8
11 19.10 СЗ 3 н/о н/о +11.2 +11.2 100 +9 +9 очень
холодно
1020.4 1017.5
12 19.10 С 3 4000 м слабый дождь 10/9 300 м
[Frnb As op]
+11.3 +11.3 100 +9 +9 очень
холодно
1020.3 1017.4 +11.7 25
14 19.10 С 3 н/о н/о +11.5 +11.5 100 +10 +10 холодно 1019.3 1016.4
13 19.10 С 3 н/о н/о +11.5 +11.5 100 +9 +9 очень
холодно
1019.5 1016.6
15 19.10 С 3 н/о н/о +11.5 +11.5 100 +9 +9 очень
холодно
1018.5 1015.6
16 19.10 С 3 н/о н/о +11.5 +11.5 100 +10 +10 прохладно 1018.0 1015.1
17 19.10 С 4 н/о н/о +11.5 +11.5 100 +9 +9 холодно 1017.7 1014.8
18 19.10 СЗ 4 4000 м слабый дождь 10/9 300 м
[Frnb As op]
+11.6 +11.6 100 +9 +9 холодно 1017.4 1014.5 2
20 19.10 СЗ 4 н/о н/о +11.9 +11.9 100 +10 +10 холодно 1017.0 1014.1
19 19.10 С 3 н/о н/о +11.8 +11.8 100 +10 +10 холодно 1017.1 1014.2
21 19.10 СЗ 4 4000 м слабый дождь 10/9 300 м
[Frnb As op]
+12.0 +12.0 100 +10 +10 холодно 1017.2 1014.3
22 19.10 СЗ 4 н/о н/о +12.2 +12.2 100 +10 +10 очень
холодно
1017.8 1014.9
23 19.10 С 3 н/о н/о +12.6 +12.6 100 +11 +11 холодно 1018.1 1015.2
00 20.10 С 4 8000 м слабый дождь 10/9 300 м
[Frnb As op]
+13.1 +13.1 100 +11 +11 холодно 1017.8 1014.9 +11.3 12
02 20.10 СЗ 3 н/о н/о +14.3 +14.0 98 +13 +13 холодно 1017.8 1014.9
01 20.10 С 4 н/о н/о +13.7 +13.6 99 +12 +12 очень
холодно
1018.2 1015.3
03 20.10 СЗ 4 10 км в посл. час дождь 10/10
[Sc]
+14.7 +14.2 97 +14 +14 холодно 1016.9 1014.0
04 20.10 СЗ 3 н/о н/о +15.8 +14.7 93 +15 +15 холодно 1015.6 1012.7
05 20.10 СЗ 3 н/о н/о +16.1 +14.8 92 +16 +16 холодно 1015.6 1012.7
06 20.10 СЗ 4 15 км {дождь} 10/8
[Sc Ac As]
+16.8 +15.2 90 +16 +16 холодно 1015.9 1013.0 0.0
08 20.10 СЗ 4 н/о н/о +16.4 +15.1 92 +16 +16 прохладно 1016.4 1013.5
07 20.10 СЗ 4 н/о н/о +16.4 +14.9 91 +16 +16 прохладно 1016.2 1013.3
09 20.10 СЗ 3 10 км слабый дождь 10/9
[Sc Ac As]
+16.1 +15.5 96 +16 +16 прохладно 1016.6 1013.7
10 20.10 С 3 н/о н/о +15.9 +15.9 100 +16 +16 по сезону 1017.1 1014.2
11 20.10 С 2 н/о н/о +15.9 +15.9 100 +16 +16 по сезону 1017.2 1014.3
12 20.10 С 3 3000 м слабый дождь 10/10 200 м
[Sc]
+15.6 +15.6 100 +15 +15 прохладно 1017.3 1014.4 +17.0 2
14 20.10 С 3 н/о н/о +15.3 +15.3 100 +15 +15 по сезону 1017.0 1014.1
13 20.10 С 3 н/о н/о +15.5 +15.5 100 +15 +15 по сезону 1017.3 1014.4
15 20.10 С 2 н/о н/о +15.3 +15.3 100 +15 +15 по сезону 1017.1 1014.2
16 20.10 С 3 н/о н/о +15.2 +15.2 100 +15 +15 по сезону 1017.1 1014.2
17 20.10 С 3 н/о н/о +15.3 +15.3 100 +15 +15 по сезону 1016.7 1013.8
18 20.10 С 3 4000 м слабый дождь 10/10 100 м
[Sc]
+15.4 +15.4 100 +15 +15 по сезону 1016.6 1013.7 7
20 20.10 С 3 н/о н/о +15.5 +15.5 100 +15 +15 по сезону 1016.8 1013.9
19 20.10 СЗ 2 н/о н/о +15.4 +15.4 100 +15 +15 по сезону 1016.4 1013.5
21 20.10 СЗ 2 2500 м слабый дождь 10/10
[Sc]
+15.5 +15.5 100 +15 +15 по сезону 1016.7 1013.8
22 20.10 С 3 н/о н/о +15.7 +15.7 100 +15 +15 по сезону 1017.0 1014.1
23 20.10 СЗ 2 н/о н/о +15.9 +15.9 100 +16 +16 по сезону 1017.5 1014.6
00 21.10 СЗ 3 2500 м дождь 10/10
[Sc]
+16.0 +16.0 100 +16 +16 по сезону 1018.2 1015.3 +15.2 14
02 21.10 С 3 н/о н/о +16.6 +16.6 100 +16 +16 прохладно 1017.3 1014.4
01 21.10 С 2 н/о н/о +16.3 +16.3 100 +17 +17 по сезону 1018.0 1015.1
03 21.10 СЗ 3 3000 м слабый дождь 10/10 200 м
[Sc]
+16.7 +16.7 100 +17 +17 по сезону 1016.9 1014.0
04 21.10 СЗ 2 н/о н/о +16.8 +16.8 100 +17 +17 прохладно 1016.7 1013.8
05 21.10 СЗ 2 н/о н/о +17.0 +17.0 100 +17 +17 прохладно 1016.5 1013.6
06 21.10 С 1 4000 м слабый дождь 10/10 200 м
[Sc]
+17.0 +17.0 100 +18 +18 по сезону 1016.1 1013.2 6
08 21.10 С 2 н/о н/о +17.1 +17.1 100 +18 +18 по сезону 1016.3 1013.4
07 21.10 С 2 н/о н/о +17.1 +17.1 100 +18 +18 по сезону 1016.5 1013.6
09 21.10 СЗ 2 5000 м слабый дождь 10/10 100 м
[Sc]
+17.0 +17.0 100 +17 +17 по сезону 1016.5 1013.6
10 21.10 СЗ 3 н/о н/о +17.1 +17.1 100 +17 +17 по сезону 1016.8 1013.9
11 21.10 С 3 н/о н/о +17.1 +17.1 100 +17 +17 по сезону 1016.1 1013.2
12 21.10 СЗ 2 6000 м слабый дождь 10/10 200 м
[Sc]
+17.1 +17.1 100 +17 +17 по сезону 1016.7 1013.8 +17.2 11
14 21.10 С 2 н/о н/о +17.0 +17.0 100 +17 +17 тепло 1015.1 1012.2
13 21.10 СЗ 3 н/о н/о +17.0 +17.0 100 +17 +17 тепло 1016.3 1013.4
15 21.10 С 3 н/о н/о +17.0 +17.0 100 +17 +17 по сезону 1014.0 1011.1
16 21.10 СЗ 3 н/о н/о +17.0 +17.0 100 +17 +17 тепло 1014.3 1011.4
17 21.10 С 3 н/о н/о +17.0 +17.0 100 +17 +17 тепло 1013.3 1010.4
18 21.10 С 3 5000 м слабый дождь 10/10 100 м
[Sc]
+17.1 +17.1 100 +17 +17 тепло 1011.9 1009.0 5
20 21.10 СЗ 3 н/о н/о +17.2 +17.2 100 +17 +17 тепло 1011.1 1008.2
19 21.10 С 2 н/о н/о +17.1 +17.1 100 +17 +17 тепло 1011.3 1008.4
21 21.10 С 4 4000 м ливневой дождь 10/10 100 м
[Cu Sc]
+17.3 +17.3 100 +17 +17 тепло 1009.8 1006.9
22 21.10 СЗ 2 н/о н/о +17.6 +17.6 100 +18 +18 тепло 1010.9 1008.0
23 21.10 С 2 н/о н/о +17.5 +17.5 100 +18 +18 тепло 1010.5 1007.6
00 22.10 СЗ 3 2500 м ливневой дождь 10/10 100 м
[Cu med, cong]
+17.6 +17.6 100 +18 +18 тепло 1009.5 1006.7 +16.9 34

 

Местоположение метеостанции Tokyo (Япония): широта 35.68 долгота 139.76 высота над уровнем моря 36 м.

В архиве по умолчанию представлена погода в Tokyo за последнюю неделю. Архивные данные за месяц целиком и за предыдущие месяцы, начиная с января 2011 года, Вы можете получить, выбрав интересующий диапазон дат из раскрывающегося списка и нажав кнопку "Ввод!".

Внимание! Время в таблицах - всемирное. Для получения местного времени необходимо прибавить поправку, которая в Tokyo равна 9 ч.

Смотрите также архив погоды в соседних городах и на ближайших метеорологических станциях:

Погода в Yokohama (Япония) (30 км)
Погода в Chiba (Япония) (32 км)
Погода в Kumagaya (Япония) (62 км)
Погода в Chichibu (Япония) (71 км)
Погода в Katsuura (Япония) (77 км)
Погода в Tateyama (Япония) (78 км)
Погода в Ajiro (Япония) (92 км)
Погода в Kawaguchiko (Япония) (93 км)
Погода в Utsunomiya (Япония) (97 км)
Погода в Mishima (Япония) (98 км)

Пояснения к столбцам:

Ветер - указаны скорость ветра в м/с - средняя за 10 мин, порывы в срок и между сроками (в фигурных скобках) и направление, откуда дует ветер: С - северный, СВ - северо-восточный, В - восточный, ЮВ - юго-восточный, Ю - южный, ЮЗ - юго-западный, З - западный, СЗ - северо-западный.
Видимость - горизонтальная дальность видимости в метрах или километрах. При видимости от 1 до 10 км при отсутствии осадков обычно наблюдается дымка, при ухудшении видимости до 1 км и менее - туман. В сухую погоду видимость может ухудшаться дымом, пылью или мглою.
Явления - указаны атмосферные явления, наблюдавшиеся в срок или в последний час перед сроком; фигурными скобками обозначены явления, наблюдавшиеся между сроками (за 1-3 часа до срока); квадратными скобками обозначены град или гололедные отложения с указанием их диаметра в мм.
Облачность - указаны через наклонную черту общая и нижняя облачность в баллах и высота нижней границы облаков в метрах; квадратными скобками обозначены формы облаков: Ci - перистые, Cs - перисто-слоистые, Cc - перисто-кучевые, Ac - высококучевые, As - высокослоистые, Sc - слоисто-кучевые, Ns - слоисто-дождевые, Cu - кучевые, Cb - кучево-дождевые. Подробнее классификацию облаков см. в Атласе облаков (PDF).
T - Температура воздуха - температура, измеренная на высоте 2 м над землей.
Td - Температура точки росы - температура, при понижении до которой содержащийся в воздухе водяной пар достигнет насыщения.
f - Относительная влажность воздуха - влажноcть воздуха, измеренная на высоте 2 м над землей.
Te - Эффективная температура - температура, которую ощущает одетый по сезону человек в тени. Характеристика душности погоды. При расчете учитывается влияние влажности воздуха и скорости ветра на теплоощущения человека.
Tes - Эффективная температура на солнце - температура, которую ощущает человек, с поправкой на солнечный нагрев. Характеристика знойности погоды. Зависит от высоты солнца над горизонтом, облачности и скорости ветра. Ночью, в пасмурную погоду, а также при ветре 12 м/с и более поправка равна нулю.
P - Атмосферное давление - приведенное к уровню моря атмосферное давление.
Po - Атмосферное давление - измеренное на уровне метеостанции атмосферное давление.
Tmin - Минимальная температура - минимум температуры воздуха на высоте 2 м над землей.
Tmax - Максимальная температура - максимум температуры воздуха на высоте 2 м над землей.
R - Количество осадков - Количество выпавших осадков за период времени, мм. При наведении курсора мыши на число - период времени, за который выпало указанное количество осадков.
R24 - Количество осадков - Количество выпавших осадков за 24 часа, мм.
S - Снежный покров - Высота снежного покрова, см. При наведении курсора мыши на число - состояние снежного покрова и степень покрытия местности в баллах.